TRUSK36 TBPB-TBPB

Flight info

Callsign TRUSK36
Flight time 1h 27m
Altitude 8000
Route TBPB TLPL TLPC STAY1/0100 TVSB TBPB
Aircraft A400/H-SDE2E3FGHIJ4J5M1RWXY/LB1D1

Departure

Time 2026-05-06 17:59
Airport Grantley Adams International Airport (TBPB)

Arrival

Time 2026-05-06 19:26
Airport Grantley Adams International Airport (TBPB)
Time Latitude Longitude Altitude Speed Heading
2026-05-06 17:44 13.07951 -59.48497 185 ft 0 kts 346°
2026-05-06 17:53 13.07930 -59.48492 188 ft 4 kts 346°
2026-05-06 17:53 13.07904 -59.48485 188 ft 4 kts 345°
2026-05-06 17:53 13.07879 -59.48476 192 ft 4 kts 329°
2026-05-06 17:53 13.07859 -59.48459 190 ft 4 kts 295°
2026-05-06 17:54 13.07855 -59.48440 188 ft 1 kts 256°
2026-05-06 17:54 13.07856 -59.48436 189 ft 0 kts 256°
2026-05-06 17:56 13.07854 -59.48445 191 ft 4 kts 256°
2026-05-06 17:56 13.07841 -59.48496 194 ft 10 kts 256°
2026-05-06 17:56 13.07820 -59.48582 181 ft 15 kts 256°
2026-05-06 17:57 13.07792 -59.48694 185 ft 18 kts 257°
2026-05-06 17:57 13.07735 -59.48809 187 ft 18 kts 252°
2026-05-06 17:57 13.07703 -59.48936 185 ft 18 kts 258°
2026-05-06 17:57 13.07649 -59.49001 185 ft 10 kts 175°
2026-05-06 17:58 13.07590 -59.48987 191 ft 9 kts 168°
2026-05-06 17:58 13.07537 -59.48964 191 ft 7 kts 123°
2026-05-06 17:58 13.07541 -59.48921 185 ft 11 kts 75°
2026-05-06 17:58 13.07643 -59.48503 183 ft 112 kts 75°
2026-05-06 17:59 13.07892 -59.47519 480 ft 157 kts 79°
2026-05-06 17:59 13.08206 -59.46389 1202 ft 173 kts 75°
2026-05-06 17:59 13.08593 -59.45175 2014 ft 186 kts 71°
2026-05-06 17:59 13.09167 -59.43935 2683 ft 209 kts 57°
2026-05-06 18:00 13.10340 -59.42916 3206 ft 240 kts 26°
2026-05-06 18:00 13.12063 -59.42797 3922 ft 265 kts 349°
2026-05-06 18:00 13.13665 -59.43793 4811 ft 278 kts 314°
2026-05-06 18:00 13.14751 -59.45452 5741 ft 284 kts 297°
2026-05-06 18:01 13.15513 -59.47338 6659 ft 289 kts 289°
2026-05-06 18:01 13.16168 -59.49313 7411 ft 294 kts 288°
2026-05-06 18:01 13.16836 -59.51308 7871 ft 298 kts 289°
2026-05-06 18:01 13.17569 -59.53306 8024 ft 299 kts 291°
2026-05-06 18:02 13.18367 -59.55279 8054 ft 300 kts 293°
2026-05-06 18:02 13.19253 -59.57318 8055 ft 327 kts 294°
2026-05-06 18:02 13.20236 -59.59487 8050 ft 340 kts 295°
2026-05-06 18:02 13.21243 -59.61668 8051 ft 343 kts 295°
2026-05-06 18:03 13.22271 -59.63885 8047 ft 345 kts 295°
2026-05-06 18:03 13.23303 -59.66109 8046 ft 345 kts 295°
2026-05-06 18:03 13.24333 -59.68338 8040 ft 345 kts 295°
2026-05-06 18:03 13.25358 -59.70562 8041 ft 345 kts 295°
2026-05-06 18:04 13.26383 -59.72794 8046 ft 345 kts 295°
2026-05-06 18:04 13.27409 -59.75032 8043 ft 347 kts 295°
2026-05-06 18:04 13.28440 -59.77280 8041 ft 349 kts 294°
2026-05-06 18:04 13.29472 -59.79536 8044 ft 349 kts 295°
2026-05-06 18:05 13.30492 -59.81765 8044 ft 349 kts 295°
2026-05-06 18:05 13.31526 -59.84028 8043 ft 349 kts 295°
2026-05-06 18:05 13.32550 -59.86270 8042 ft 345 kts 295°
2026-05-06 18:05 13.33570 -59.88502 8044 ft 346 kts 295°
2026-05-06 18:06 13.34248 -59.89983 8043 ft 346 kts 295°
2026-05-06 18:06 13.35274 -59.92226 8034 ft 348 kts 295°
2026-05-06 18:06 13.36306 -59.94483 8046 ft 350 kts 295°
2026-05-06 18:06 13.37342 -59.96749 8045 ft 351 kts 295°
2026-05-06 18:07 13.38715 -59.99756 8046 ft 350 kts 295°
2026-05-06 18:07 13.39414 -60.01288 8040 ft 350 kts 295°
2026-05-06 18:07 13.40441 -60.03540 8040 ft 346 kts 295°
2026-05-06 18:07 13.41448 -60.05749 8034 ft 346 kts 295°
2026-05-06 18:08 13.42475 -60.07997 8048 ft 347 kts 295°
2026-05-06 18:08 13.43502 -60.10247 8042 ft 348 kts 295°
2026-05-06 18:08 13.44528 -60.12499 8043 ft 346 kts 295°
2026-05-06 18:08 13.45548 -60.14738 8043 ft 345 kts 295°
2026-05-06 18:09 13.46560 -60.16960 8042 ft 343 kts 295°
2026-05-06 18:09 13.47576 -60.19190 8051 ft 344 kts 295°
2026-05-06 18:09 13.48582 -60.21397 8051 ft 345 kts 295°
2026-05-06 18:09 13.49595 -60.23623 8047 ft 346 kts 295°
2026-05-06 18:10 13.50624 -60.25879 8049 ft 349 kts 295°
2026-05-06 18:10 13.51654 -60.28140 8051 ft 349 kts 295°
2026-05-06 18:10 13.52686 -60.30410 8053 ft 350 kts 295°
2026-05-06 18:10 13.53713 -60.32670 8043 ft 347 kts 295°
2026-05-06 18:11 13.54731 -60.34911 8048 ft 346 kts 295°
2026-05-06 18:11 13.55750 -60.37153 8053 ft 346 kts 295°
2026-05-06 18:11 13.56768 -60.39392 8048 ft 346 kts 295°
2026-05-06 18:11 13.57789 -60.41639 8047 ft 348 kts 295°
2026-05-06 18:12 13.58819 -60.43906 8058 ft 351 kts 295°
2026-05-06 18:12 13.59837 -60.46147 8053 ft 351 kts 295°
2026-05-06 18:12 13.60872 -60.48427 8050 ft 352 kts 295°
2026-05-06 18:12 13.61908 -60.50713 8055 ft 352 kts 295°
2026-05-06 18:13 13.62941 -60.52989 8051 ft 352 kts 295°
2026-05-06 18:13 13.63978 -60.55277 8049 ft 353 kts 295°
2026-05-06 18:13 13.65012 -60.57557 8047 ft 351 kts 295°
2026-05-06 18:13 13.66024 -60.59788 7696 ft 338 kts 295°
2026-05-06 18:14 13.67018 -60.61983 6894 ft 342 kts 295°
2026-05-06 18:14 13.68026 -60.64208 6228 ft 340 kts 295°
2026-05-06 18:14 13.69004 -60.66368 5619 ft 336 kts 295°
2026-05-06 18:14 13.69990 -60.68545 5205 ft 334 kts 295°
2026-05-06 18:15 13.70968 -60.70706 4975 ft 334 kts 295°
2026-05-06 18:15 13.71937 -60.72848 4609 ft 323 kts 296°
2026-05-06 18:15 13.72834 -60.74922 4227 ft 314 kts 290°
2026-05-06 18:15 13.73185 -60.77121 3876 ft 312 kts 275°
2026-05-06 18:16 13.73355 -60.79337 3409 ft 308 kts 272°
2026-05-06 18:16 13.73424 -60.81526 2922 ft 304 kts 270°
2026-05-06 18:16 13.73437 -60.83675 2584 ft 295 kts 269°
2026-05-06 18:16 13.73421 -60.85706 2484 ft 279 kts 268°
2026-05-06 18:17 13.73389 -60.87717 2211 ft 281 kts 267°
2026-05-06 18:17 13.73338 -60.89685 1671 ft 269 kts 268°
2026-05-06 18:17 13.73296 -60.91531 886 ft 245 kts 270°
2026-05-06 18:17 13.73326 -60.93176 278 ft 216 kts 270°
2026-05-06 18:18 13.73341 -60.94591 33 ft 177 kts 269°
2026-05-06 18:18 13.73331 -60.95728 196 ft 163 kts 268°
2026-05-06 18:18 13.73309 -60.97021 527 ft 196 kts 268°
2026-05-06 18:18 13.73303 -60.98505 1075 ft 212 kts 281°
2026-05-06 18:19 13.73720 -60.99903 2157 ft 195 kts 296°
2026-05-06 18:19 13.74307 -61.01174 3062 ft 214 kts 297°
2026-05-06 18:19 13.75021 -61.02591 3462 ft 226 kts 299°
2026-05-06 18:19 13.75774 -61.04025 4135 ft 231 kts 299°
2026-05-06 18:20 13.76548 -61.05554 4757 ft 257 kts 297°
2026-05-06 18:20 13.77386 -61.07311 4963 ft 284 kts 295°
2026-05-06 18:20 13.78226 -61.09186 4993 ft 291 kts 294°
2026-05-06 18:20 13.79045 -61.11092 4996 ft 292 kts 294°
2026-05-06 18:21 13.79853 -61.13012 4995 ft 292 kts 293°
2026-05-06 18:21 13.80645 -61.14905 4996 ft 291 kts 293°
2026-05-06 18:21 13.81448 -61.16824 4998 ft 291 kts 293°
2026-05-06 18:21 13.82252 -61.18736 4996 ft 291 kts 294°
2026-05-06 18:22 13.83203 -61.20556 4996 ft 289 kts 312°
2026-05-06 18:22 13.84773 -61.21658 5011 ft 264 kts 343°
2026-05-06 18:22 13.86503 -61.22010 4829 ft 248 kts 359°
2026-05-06 18:22 13.88204 -61.21999 4344 ft 242 kts
2026-05-06 18:23 13.89862 -61.21849 3636 ft 236 kts 10°
2026-05-06 18:23 13.91481 -61.21677 2913 ft 232 kts
2026-05-06 18:23 13.93042 -61.21498 2332 ft 217 kts 15°
2026-05-06 18:23 13.94410 -61.21079 1918 ft 195 kts 28°
2026-05-06 18:24 13.95519 -61.20417 1544 ft 174 kts 42°
2026-05-06 18:24 13.96340 -61.19566 1178 ft 164 kts 57°
2026-05-06 18:24 13.96874 -61.18572 1039 ft 160 kts 71°
2026-05-06 18:24 13.97269 -61.17493 1018 ft 160 kts 76°
2026-05-06 18:25 13.97587 -61.16400 1014 ft 160 kts 76°
2026-05-06 18:25 13.97872 -61.15285 1020 ft 160 kts 79°
2026-05-06 18:25 13.98142 -61.14178 1015 ft 159 kts 78°
2026-05-06 18:25 13.98411 -61.13073 1015 ft 161 kts 78°
2026-05-06 18:26 13.98690 -61.11949 1029 ft 163 kts 79°
2026-05-06 18:26 13.98976 -61.10820 1028 ft 163 kts 78°
2026-05-06 18:26 13.99263 -61.09693 1077 ft 162 kts 77°
2026-05-06 18:26 13.99552 -61.08570 1297 ft 162 kts 77°
2026-05-06 18:27 13.99843 -61.07466 1534 ft 161 kts 76°
2026-05-06 18:27 14.00159 -61.06353 1715 ft 156 kts 75°
2026-05-06 18:27 14.00474 -61.05436 1442 ft 123 kts 74°
2026-05-06 18:27 14.00723 -61.04636 1001 ft 121 kts 77°
2026-05-06 18:28 14.00930 -61.03732 822 ft 134 kts 83°
2026-05-06 18:28 14.01096 -61.02809 673 ft 129 kts 79°
2026-05-06 18:28 14.01324 -61.01911 428 ft 132 kts 77°
2026-05-06 18:28 14.01565 -61.00979 238 ft 134 kts 75°
2026-05-06 18:29 14.01803 -61.00048 58 ft 130 kts 74°
2026-05-06 18:29 14.02018 -60.99246 16 ft 110 kts 75°
2026-05-06 18:29 14.02261 -60.98356 417 ft 135 kts 73°
2026-05-06 18:29 14.03003 -60.97737 1016 ft 176 kts
2026-05-06 18:30 14.04202 -60.98410 1251 ft 225 kts 304°
2026-05-06 18:30 14.04407 -60.99916 1496 ft 207 kts 254°
2026-05-06 18:30 14.04085 -61.01242 1771 ft 180 kts 256°
2026-05-06 18:30 14.03791 -61.02530 1901 ft 191 kts 255°
2026-05-06 18:31 14.03486 -61.03851 1754 ft 187 kts 250°
2026-05-06 18:31 14.02662 -61.04699 1608 ft 163 kts 182°
2026-05-06 18:31 14.01694 -61.04290 1556 ft 159 kts 128°
2026-05-06 18:31 14.01332 -61.03284 960 ft 143 kts 92°
2026-05-06 18:32 14.01347 -61.02285 592 ft 137 kts 84°
2026-05-06 18:32 14.01494 -61.01326 292 ft 137 kts 80°
2026-05-06 18:32 14.01716 -61.00394 92 ft 123 kts 75°
2026-05-06 18:32 14.01925 -60.99598 34 ft 112 kts 75°
2026-05-06 18:33 14.02159 -60.98708 241 ft 144 kts 74°
2026-05-06 18:33 14.02857 -60.97899 651 ft 179 kts 11°
2026-05-06 18:33 14.04002 -60.98453 1243 ft 211 kts 303°
2026-05-06 18:33 14.04135 -61.00026 1603 ft 239 kts 251°
2026-05-06 18:34 14.03710 -61.01560 1961 ft 203 kts 255°
2026-05-06 18:34 14.03366 -61.02905 2064 ft 192 kts 252°
2026-05-06 18:34 14.02806 -61.04139 1912 ft 184 kts 215°
2026-05-06 18:34 14.01688 -61.04261 1407 ft 163 kts 148°
2026-05-06 18:35 14.01080 -61.03412 952 ft 144 kts 92°
2026-05-06 18:35 14.01213 -61.02399 588 ft 142 kts 79°
2026-05-06 18:35 14.01440 -61.01426 382 ft 137 kts 78°
2026-05-06 18:35 14.01686 -61.00503 155 ft 131 kts 75°
2026-05-06 18:36 14.01921 -60.99616 21 ft 116 kts 74°
2026-05-06 18:36 14.01998 -60.99318 15 ft 76 kts 76°
2026-05-06 18:40 14.02046 -60.99127 18 ft 51 kts 74°
2026-05-06 18:40 14.02072 -60.99031 21 ft 6 kts 74°
2026-05-06 18:40 14.02047 -60.99127 18 ft 18 kts 76°
2026-05-06 18:41 14.02012 -60.99266 19 ft 23 kts 75°
2026-05-06 18:41 14.01969 -60.99427 22 ft 21 kts 75°
2026-05-06 18:41 14.01935 -60.99556 22 ft 18 kts 74°
2026-05-06 18:41 14.01903 -60.99681 23 ft 22 kts 75°
2026-05-06 18:42 14.01862 -60.99839 27 ft 20 kts 75°
2026-05-06 18:42 14.01857 -60.99859 28 ft 25 kts 75°
2026-05-06 18:42 14.01998 -60.99322 16 ft 126 kts 75°
2026-05-06 18:42 14.02294 -60.98307 388 ft 156 kts 65°
2026-05-06 18:43 14.03270 -60.97788 1015 ft 188 kts 357°
2026-05-06 18:43 14.04413 -60.98634 1228 ft 239 kts 296°
2026-05-06 18:43 14.04395 -61.00247 1297 ft 214 kts 253°
2026-05-06 18:43 14.04022 -61.01610 1455 ft 181 kts 249°
2026-05-06 18:44 14.03584 -61.02709 1340 ft 158 kts 249°
2026-05-06 18:44 14.03163 -61.03935 1252 ft 191 kts 246°
2026-05-06 18:44 14.02367 -61.04719 987 ft 155 kts 176°
2026-05-06 18:44 14.01388 -61.04338 920 ft 148 kts 129°
2026-05-06 18:45 14.01096 -61.03406 864 ft 141 kts 89°
2026-05-06 18:45 14.01204 -61.02405 608 ft 142 kts 78°
2026-05-06 18:45 14.01456 -61.01437 340 ft 141 kts 78°
2026-05-06 18:45 14.01615 -61.00803 222 ft 137 kts 77°
2026-05-06 18:46 14.01937 -60.99548 20 ft 124 kts 73°
2026-05-06 18:46 14.02150 -60.98755 59 ft 130 kts 73°
2026-05-06 18:46 14.02596 -60.97920 519 ft 153 kts 21°
2026-05-06 18:46 14.03685 -60.98188 1078 ft 194 kts 317°
2026-05-06 18:47 14.04015 -60.99657 1205 ft 243 kts 254°
2026-05-06 18:47 14.03527 -61.01399 1553 ft 253 kts 251°
2026-05-06 18:47 14.02957 -61.02955 1731 ft 216 kts 244°
2026-05-06 18:47 14.02360 -61.04256 1783 ft 186 kts 230°
2026-05-06 18:48 14.01366 -61.04723 1553 ft 150 kts 163°
2026-05-06 18:48 14.00738 -61.04072 1252 ft 131 kts 93°
2026-05-06 18:48 14.00942 -61.03187 670 ft 127 kts 78°
2026-05-06 18:48 14.01228 -61.02261 579 ft 149 kts 74°
2026-05-06 18:49 14.01542 -61.01124 358 ft 173 kts 78°
2026-05-06 18:49 14.01841 -60.99903 174 ft 178 kts 74°
2026-05-06 18:49 14.02172 -60.98658 158 ft 185 kts 74°
2026-05-06 18:49 14.02872 -60.97654 1202 ft 180 kts 25°
2026-05-06 18:50 14.04241 -60.97951 1091 ft 237 kts 319°
2026-05-06 18:50 14.04695 -60.99469 1017 ft 217 kts 258°
2026-05-06 18:50 14.04033 -61.00716 966 ft 186 kts 229°
2026-05-06 18:50 14.03320 -61.01714 837 ft 165 kts 232°
2026-05-06 18:51 14.02722 -61.02761 794 ft 187 kts 236°
2026-05-06 18:51 14.02037 -61.04034 1283 ft 216 kts 239°
2026-05-06 18:51 14.01325 -61.05385 2290 ft 214 kts 239°
2026-05-06 18:51 14.00609 -61.06762 3276 ft 222 kts 239°
2026-05-06 18:52 13.99871 -61.08194 4187 ft 230 kts 239°
2026-05-06 18:52 13.98910 -61.09544 4790 ft 246 kts 220°
2026-05-06 18:52 13.97405 -61.10557 5047 ft 269 kts 203°
2026-05-06 18:52 13.95635 -61.11241 5087 ft 273 kts 192°
2026-05-06 18:53 13.93806 -61.11693 4935 ft 273 kts 189°
2026-05-06 18:53 13.91932 -61.12041 4503 ft 273 kts 186°
2026-05-06 18:53 13.90053 -61.12354 4015 ft 273 kts 186°
2026-05-06 18:53 13.88181 -61.12675 3530 ft 273 kts 186°
2026-05-06 18:54 13.86312 -61.13019 3119 ft 271 kts 187°
2026-05-06 18:54 13.85087 -61.13258 2822 ft 270 kts 187°
2026-05-06 18:54 13.83248 -61.13634 2535 ft 267 kts 188°
2026-05-06 18:54 13.81429 -61.14018 2494 ft 267 kts 188°
2026-05-06 18:55 13.79012 -61.14536 2500 ft 267 kts 188°
2026-05-06 18:55 13.77189 -61.14929 2496 ft 267 kts 188°
2026-05-06 18:55 13.75377 -61.15320 2497 ft 266 kts 187°
2026-05-06 18:55 13.73568 -61.15710 2497 ft 265 kts 187°
2026-05-06 18:56 13.72346 -61.15972 2495 ft 265 kts 188°
2026-05-06 18:56 13.70536 -61.16360 2504 ft 267 kts 188°
2026-05-06 18:56 13.68747 -61.16743 2483 ft 264 kts 188°
2026-05-06 18:56 13.66940 -61.17130 2497 ft 266 kts 188°
2026-05-06 18:57 13.65120 -61.17518 2498 ft 267 kts 187°
2026-05-06 18:57 13.63305 -61.17907 2498 ft 267 kts 187°
2026-05-06 18:57 13.61489 -61.18295 2480 ft 265 kts 187°
2026-05-06 18:57 13.59684 -61.18682 2497 ft 264 kts 187°
2026-05-06 18:58 13.57901 -61.19064 2500 ft 262 kts 187°
2026-05-06 18:58 13.56102 -61.19448 2484 ft 264 kts 187°
2026-05-06 18:58 13.54307 -61.19831 2486 ft 264 kts 187°
2026-05-06 18:58 13.52510 -61.20215 2479 ft 264 kts 187°
2026-05-06 18:59 13.50707 -61.20600 2500 ft 264 kts 187°
2026-05-06 18:59 13.48912 -61.20983 2498 ft 264 kts 187°
2026-05-06 18:59 13.47105 -61.21336 2500 ft 263 kts 182°
2026-05-06 18:59 13.45228 -61.21269 2503 ft 283 kts 165°
2026-05-06 19:00 13.43410 -61.20402 2499 ft 293 kts 138°
2026-05-06 19:00 13.42238 -61.18716 2503 ft 292 kts 112°
2026-05-06 19:00 13.41588 -61.16763 2489 ft 292 kts 105°
2026-05-06 19:00 13.41042 -61.14754 2502 ft 292 kts 104°
2026-05-06 19:01 13.40509 -61.12748 2500 ft 290 kts 104°
2026-05-06 19:01 13.39974 -61.10755 2490 ft 290 kts 105°
2026-05-06 19:01 13.39431 -61.08755 2486 ft 292 kts 105°
2026-05-06 19:01 13.38881 -61.06747 2479 ft 292 kts 105°
2026-05-06 19:02 13.38331 -61.04747 2490 ft 290 kts 105°
2026-05-06 19:02 13.37782 -61.02762 2497 ft 289 kts 105°
2026-05-06 19:02 13.37233 -61.00775 2494 ft 289 kts 105°
2026-05-06 19:02 13.36686 -60.98798 2481 ft 288 kts 105°
2026-05-06 19:03 13.36136 -60.96815 2466 ft 289 kts 105°
2026-05-06 19:03 13.35586 -60.94832 2473 ft 287 kts 105°
2026-05-06 19:03 13.35043 -60.92871 2472 ft 285 kts 105°
2026-05-06 19:03 13.34497 -60.90903 2484 ft 288 kts 105°
2026-05-06 19:04 13.33946 -60.88918 2470 ft 289 kts 104°
2026-05-06 19:04 13.33404 -60.86967 2474 ft 287 kts 104°
2026-05-06 19:04 13.32857 -60.84997 2484 ft 287 kts 105°
2026-05-06 19:04 13.32314 -60.83039 2481 ft 285 kts 105°
2026-05-06 19:05 13.31769 -60.81078 2469 ft 286 kts 105°
2026-05-06 19:05 13.31219 -60.79100 2468 ft 287 kts 104°
2026-05-06 19:05 13.30671 -60.77128 2480 ft 288 kts 105°
2026-05-06 19:05 13.30123 -60.75158 2468 ft 288 kts 105°
2026-05-06 19:06 13.29572 -60.73178 2480 ft 288 kts 105°
2026-05-06 19:06 13.29020 -60.71192 2481 ft 288 kts 105°
2026-05-06 19:06 13.28469 -60.69214 2472 ft 289 kts 105°
2026-05-06 19:06 13.27915 -60.67227 2463 ft 289 kts 105°
2026-05-06 19:07 13.27364 -60.65247 2464 ft 289 kts 105°
2026-05-06 19:07 13.26811 -60.63261 2469 ft 290 kts 105°
2026-05-06 19:07 13.26255 -60.61268 2466 ft 290 kts 105°
2026-05-06 19:07 13.25700 -60.59277 2478 ft 290 kts 105°
2026-05-06 19:08 13.25150 -60.57306 2462 ft 291 kts 105°
2026-05-06 19:08 13.24591 -60.55304 2478 ft 291 kts 105°
2026-05-06 19:08 13.24035 -60.53312 2464 ft 290 kts 105°
2026-05-06 19:08 13.23479 -60.51320 2464 ft 290 kts 105°
2026-05-06 19:09 13.22924 -60.49330 2466 ft 290 kts 105°
2026-05-06 19:09 13.22368 -60.47343 2478 ft 290 kts 104°
2026-05-06 19:09 13.21811 -60.45349 2468 ft 291 kts 104°
2026-05-06 19:09 13.21251 -60.43346 2474 ft 292 kts 105°
2026-05-06 19:10 13.20691 -60.41345 2474 ft 291 kts 105°
2026-05-06 19:10 13.20131 -60.39343 2471 ft 293 kts 104°
2026-05-06 19:10 13.19570 -60.37338 2465 ft 292 kts 104°
2026-05-06 19:10 13.19017 -60.35362 2461 ft 292 kts 105°
2026-05-06 19:11 13.18457 -60.33363 2467 ft 291 kts 104°
2026-05-06 19:11 13.17899 -60.31369 2464 ft 290 kts 104°
2026-05-06 19:11 13.17339 -60.29373 2465 ft 292 kts 105°
2026-05-06 19:11 13.16777 -60.27368 2463 ft 292 kts 105°
2026-05-06 19:12 13.16215 -60.25363 2470 ft 291 kts 104°
2026-05-06 19:12 13.15658 -60.23376 2461 ft 289 kts 104°
2026-05-06 19:12 13.15101 -60.21390 2455 ft 290 kts 105°
2026-05-06 19:12 13.14543 -60.19404 2457 ft 291 kts 105°
2026-05-06 19:13 13.13983 -60.17408 2470 ft 290 kts 105°
2026-05-06 19:13 13.13425 -60.15421 2463 ft 290 kts 105°
2026-05-06 19:13 13.12872 -60.13451 2469 ft 291 kts 105°
2026-05-06 19:13 13.12311 -60.11453 2469 ft 292 kts 105°
2026-05-06 19:14 13.11747 -60.09448 2468 ft 292 kts 105°
2026-05-06 19:14 13.11186 -60.07453 2471 ft 291 kts 105°
2026-05-06 19:14 13.10623 -60.05451 2453 ft 292 kts 105°
2026-05-06 19:14 13.10055 -60.03434 2460 ft 293 kts 105°
2026-05-06 19:15 13.09494 -60.01442 2461 ft 291 kts 105°
2026-05-06 19:15 13.08931 -59.99442 2473 ft 293 kts 105°
2026-05-06 19:15 13.08366 -59.97433 2472 ft 292 kts 105°
2026-05-06 19:15 13.07802 -59.95432 2465 ft 292 kts 105°
2026-05-06 19:16 13.07239 -59.93436 2455 ft 292 kts 104°
2026-05-06 19:16 13.06677 -59.91443 2457 ft 290 kts 104°
2026-05-06 19:16 13.06115 -59.89450 2453 ft 289 kts 105°
2026-05-06 19:16 13.05564 -59.87496 2460 ft 289 kts 105°
2026-05-06 19:17 13.05002 -59.85502 2485 ft 291 kts 105°
2026-05-06 19:17 13.04436 -59.83497 2492 ft 293 kts 105°
2026-05-06 19:17 13.03871 -59.81497 2486 ft 290 kts 105°
2026-05-06 19:17 13.03311 -59.79514 2488 ft 289 kts 105°
2026-05-06 19:18 13.02747 -59.77518 2491 ft 293 kts 105°
2026-05-06 19:18 13.02177 -59.75499 2492 ft 294 kts 104°
2026-05-06 19:18 13.01631 -59.73485 2492 ft 291 kts 100°
2026-05-06 19:18 13.01734 -59.71435 2496 ft 291 kts 77°
2026-05-06 19:19 13.02261 -59.69463 2495 ft 290 kts 73°
2026-05-06 19:19 13.02833 -59.67481 2492 ft 290 kts 74°
2026-05-06 19:19 13.03386 -59.65483 2496 ft 290 kts 75°
2026-05-06 19:19 13.03903 -59.63528 2185 ft 278 kts 75°
2026-05-06 19:20 13.04395 -59.61610 1828 ft 281 kts 76°
2026-05-06 19:20 13.04884 -59.59668 1575 ft 287 kts 76°
2026-05-06 19:20 13.05368 -59.57731 1327 ft 271 kts 76°
2026-05-06 19:20 13.05826 -59.55913 1150 ft 256 kts 76°
2026-05-06 19:21 13.06264 -59.54165 824 ft 249 kts 77°
2026-05-06 19:21 13.06663 -59.52456 564 ft 246 kts 77°
2026-05-06 19:21 13.07088 -59.50731 380 ft 250 kts 76°
2026-05-06 19:21 13.07532 -59.49032 356 ft 243 kts 77°
2026-05-06 19:22 13.07917 -59.47360 634 ft 237 kts 76°
2026-05-06 19:22 13.08167 -59.45696 1177 ft 239 kts 100°
2026-05-06 19:22 13.07113 -59.44429 1563 ft 252 kts 158°
2026-05-06 19:22 13.05386 -59.44674 1584 ft 268 kts 213°
2026-05-06 19:23 13.04452 -59.46295 1569 ft 266 kts 255°
2026-05-06 19:23 13.03981 -59.48158 1695 ft 270 kts 254°
2026-05-06 19:23 13.03514 -59.49965 1640 ft 255 kts 255°
2026-05-06 19:23 13.03084 -59.51697 1396 ft 245 kts 256°
2026-05-06 19:24 13.02761 -59.53359 1366 ft 230 kts 272°
2026-05-06 19:24 13.03348 -59.54725 1812 ft 198 kts 322°
2026-05-06 19:24 13.04503 -59.55110 1590 ft 172 kts 20°
2026-05-06 19:24 13.05396 -59.54403 1104 ft 164 kts 50°
2026-05-06 19:25 13.06178 -59.53587 764 ft 153 kts 53°
2026-05-06 19:25 13.06654 -59.52688 482 ft 142 kts 78°
2026-05-06 19:25 13.06849 -59.51680 394 ft 144 kts 77°
2026-05-06 19:25 13.07098 -59.50715 232 ft 136 kts 77°
2026-05-06 19:26 13.07312 -59.49834 190 ft 106 kts 76°
2026-05-06 19:26 13.07443 -59.49293 183 ft 54 kts 76°
2026-05-06 19:26 13.07498 -59.49077 185 ft 15 kts 77°
2026-05-06 19:26 13.07532 -59.49003 182 ft 12 kts 52°
2026-05-06 19:27 13.07586 -59.48944 191 ft 11 kts 46°
2026-05-06 19:27 13.07638 -59.48888 195 ft 6 kts 46°
2026-05-06 19:27 13.07642 -59.48885 198 ft 6 kts 46°
2026-05-06 19:27 13.07679 -59.48845 186 ft 8 kts 46°
2026-05-06 19:28 13.07722 -59.48799 188 ft 11 kts 46°
2026-05-06 19:28 13.07775 -59.48739 192 ft 11 kts 57°
2026-05-06 19:28 13.07802 -59.48653 193 ft 14 kts 76°
2026-05-06 19:28 13.07824 -59.48565 193 ft 5 kts 75°
2026-05-06 19:29 13.07833 -59.48529 192 ft 9 kts 75°
2026-05-06 19:29 13.07865 -59.48476 191 ft 8 kts 12°
2026-05-06 19:29 13.07934 -59.48492 185 ft 12 kts 346°
2026-05-06 19:29 13.07954 -59.48498 187 ft 0 kts 346°